Location: Chuathbaluk
(61.5726°N, 159.2454°W)
Time: 13:09:54
(UTC+00:00)

NUDT-PHONESAT - Pass Details

Date: 18 January 2021
Orbit: 480 x 498 km, 97.4° (Epoch: 01 March)

Event Time Altitude Azimuth Distance (km) Brightness Sun altitude
Rises 04:42:21 0° 184° (S) 2,567 ? -17.3°
Reaches altitude 10° 04:44:31 10° 193° (SSW) 1,693 ? -17.6°
Maximum altitude 04:47:56 38° 262° (W) 783 ? -18.0°
Drops below altitude 10° 04:51:24 10° 332° (NNW) 1,716 ? -18.4°
Sets 04:53:37 0° 341° (NNW) 2,607 ? -18.7°
